SCP
0 0 0 0 0 0 0 0 -0 -0 0 0 0 0 0 0 1 0 0 0 -0 -0 -0 -0 -0 -0 -0 -0 -0 -0 -0 0 -0 -0 -0 -0 -0 -0 -0 -0 -0 -0 -0 -0 -0 -0 -0 0 0
0 0 0 0 0 0 0 0 0 -0 -0 -0 0 0 0 0 0 0 0 0 0 -0 -0 -0 -1 -1 -0 -0 -0 -0 -0 0 -0 -0 -0 -0 -0 -0 -0 -0 -0 -0 -0 -0 -0 0 0 0 -0
0 0 0 0 0 0 0 0 0 -0 -0 0 0 0 0 0 0 0 0 0 0 0 0 -0 -0 -1 -0 -0 -0 -0 -0 0 -0 -0 -0 -0 -0 -0 -0 -0 -0 0 -0 -0 0 0 0 0 -0
0 0 0 0 0 0 0 0 0 0 0 0 0 0 0 0 0 0 0 0 0 0 1 -0 -0 -0 -0 -0 -0 -0 -0 -0 -0 -0 -0 -0 -0 0 0 0 0 0 0 0 0 0 0 0 -0
0 0 0 0 0 0 0 0 0 0 0 0 0 0 0 0 0 0 -0 0 0 1 1 0 -0 -0 -0 -0 -0 -0 -0 -0 -0 -0 -0 -0 -0 0 0 0 0 0 0 0 0 0 0 0 -0
0 0 0 0 0 0 0 0 0 0 0 0 0 0 0 -0 0 0 0 0 0 0 1 1 0 0 0 -0 -0 -0 -0 -0 -0 -0 -0 -0 -0 -0 0 0 0 0 0 0 0 0 0 0 -0
0 0 0 0 0 0 0 0 0 0 0 0 0 0 0 0 -0 0 1 1 1 1 1 1 1 1 1 0 0 0 -0 -0 -0 -0 -0 -0 -0 -0 -0 0 0 0 0 0 0 0 0 0 -0
0 0 0 0 0 0 0 0 0 0 0 0 0 0 0 0 -0 0 1 1 1 1 1 1 2 2 2 1 1 0 0 0 0 -0 -0 -0 -0 0 0 0 0 0 0 0 0 0 0 0 -0
0 0 0 0 0 0 -0 0 0 0 0 0 0 0 0 0 0 0 1 3 2 2 1 1 1 2 2 1 1 1 0 0 0 0 0 0 0 0 0 0 0 0 0 0 0 0 0 0 -0
0 0 0 0 0 0 -0 -0 -0 0 0 0 0 0 0 0 0 0 0 1 2 1 1 1 2 1 1 2 1 1 1 1 1 1 0 0 0 0 0 0 0 0 0 0 0 0 0 0 0
0 0 0 0 0 0 0 0 -0 -0 0 0 0 0 0 0 0 0 0 0 1 2 3 2 2 1 1 2 3 1 1 1 1 1 1 0 0 0 0 0 0 0 0 0 0 0 0 0 0
0 0 0 0 0 0 0 0 0 0 0 0 0 0 0 0 0 0 0 0 0 0 2 3 2 1 1 2 3 2 2 1 1 1 0 0 0 0 0 0 0 0 0 0 0 0 0 0 0
0 0 0 -0 -0 -0 -0 0 0 0 0 -0 0 0 0 -0 -0 0 0 0 0 0 2 2 2 1 1 2 2 2 2 1 1 1 1 0 0 0 0 0 0 0 0 0 0 0 0 0 0
0 0 0 0 0 0 0 0 0 0 0 0 0 0 0 0 0 0 0 0 0 0 1 2 3 2 1 2 2 2 2 2 1 1 1 0 0 0 0 0 0 0 0 0 0 0 0 0 0
0 0 0 0 0 0 -0 0 -0 -0 0 0 0 0 0 0 0 0 0 0 0 0 0 3 2 2 1 2 2 2 2 2 2 1 1 0 0 0 0 0 0 0 0 0 0 0 0 0 0
0 0 0 0 0 0 0 -0 -0 0 0 0 0 0 0 0 0 0 0 0 0 0 0 0 3 4 3 2 2 2 2 2 2 2 2 1 0 0 0 0 0 0 0 0 0 0 0 0 0
0 0 0 0 -0 -0 -0 0 0 0 0 0 0 0 0 0 0 0 0 0 0 0 0 0 0 3 4 3 3 2 1 1 1 1 1 1 1 0 0 0 0 0 0 0 0 0 0 0 0
0 0 0 0 -0 0 0 0 0 -0 -0 -0 0 0 0 0 0 0 0 0 0 0 0 0 0 2 3 4 3 3 2 2 2 1 1 1 1 1 0 0 0 0 0 0 0 0 0 0 0
0 0 0 0 0 0 0 0 -0 -0 0 0 0 0 0 0 0 0 0 0 0 0 0 0 0 0 4 5 4 3 2 2 2 2 1 1 1 0 0 0 0 0 0 0 0 0 0 0 0
0 0 0 0 0 0 0 0 0 -0 0 0 0 0 0 0 0 0 0 0 0 0 0 0 0 0 2 4 5 4 4 2 2 2 1 1 1 0 1 0 0 0 0 0 0 0 0 0 0
0 0 0 0 0 0 0 0 0 0 0 0 -0 -0 0 0 0 0 0 0 0 0 0 0 0 0 0 4 6 4 3 2 2 1 1 1 1 0 0 0 0 0 0 0 0 0 0 0 0
0 0 0 0 0 0 0 -0 0 0 0 0 0 0 0 0 0 0 0 0 0 0 0 0 0 0 0 2 5 4 3 3 2 2 1 1 1 1 0 0 0 0 0 0 0 0 0 0 0
0 0 0 0 0 0 0 0 0 0 0 0 0 0 0 0 0 0 0 0 0 0 0 0 0 0 1 1 3 4 3 2 1 2 1 1 1 1 1 0 0 0 0 0 0 0 0 0 0
-0 0 0 0 0 0 0 0 0 0 -0 0 0 0 -0 -0 0 0 0 0 0 0 0 0 0 1 1 1 3 4 2 2 2 2 1 1 1 1 0 1 0 0 0 0 0 0 0 0 0
0 0 0 0 0 0 0 0 0 0 0 -0 -0 0 0 -0 -0 0 0 0 0 0 0 0 0 0 1 1 2 3 3 2 2 2 1 1 1 1 1 1 1 0 0 0 1 1 0 0 0
0 0 0 0 0 0 0 0 0 0 0 -0 -0 -0 0 -0 -0 0 0 0 0 0 0 0 0 0 0 1 1 1 3 3 3 2 1 1 1 1 1 0 0 0 0 0 1 1 0 0 0
0 0 0 0 0 0 0 0 0 0 0 0 0 0 0 0 -0 -0 0 0 0 0 0 0 0 0 -0 0 1 2 1 3 2 2 1 0 1 1 1 0 0 0 0 0 0 0 0 0 0
0 0 0 0 0 0 0 0 0 0 0 0 -0 -0 -0 0 0 -0 -0 0 -0 0 0 0 0 0 0 1 1 1 2 2 1 1 1 0 0 1 1 0 0 0 1 0 0 0 0 0 0
0 0 0 0 0 0 0 0 0 0 -0 -0 -0 0 0 -0 -0 -0 -0 -0 -0 -0 0 0 0 0 0 0 0 2 2 1 1 1 1 0 0 0 0 1 1 0 0 0 0 0 0 0 0
0 0 0 0 0 0 -0 0 -0 0 0 0 0 0 0 -0 -0 -0 -0 -0 -0 -0 0 0 0 0 -0 0 0 1 1 0 0 0 1 0 0 0 0 0 0 0 0 0 0 0 0 0 0
Wind_Speed_500mb
6 9 12 6 8 9 7 9 7 12 7 15 37 31 14 21 4 12 18 16 14 22 41 47 41 38 35 33 32 30 27 28 37 38 38 39 40 39 42 47 42 35 30 28 27 25 23 22 23
6 2 4 3 8 5 10 11 5 8 12 42 42 37 24 9 30 26 14 17 16 15 23 44 40 39 37 34 32 30 28 25 32 37 40 41 41 42 48 47 41 35 29 27 25 22 20 18 19
7 5 1 7 6 7 6 10 14 20 7 4 13 23 11 10 16 14 12 18 15 11 15 37 39 39 40 35 32 32 29 25 30 36 40 42 44 46 48 44 38 32 27 27 23 19 17 16 16
7 4 2 7 7 13 6 20 23 15 6 27 31 16 19 16 9 16 13 11 15 15 14 34 37 38 40 38 34 34 32 27 27 34 37 40 43 45 45 42 39 33 28 23 17 14 13 13 13
9 4 7 5 11 10 12 44 35 17 8 35 7 12 22 35 35 21 9 9 11 21 17 30 38 36 37 38 36 34 34 31 29 31 35 38 41 41 42 42 38 32 27 20 14 12 9 9 10
4 4 8 4 11 12 10 45 42 25 38 38 29 14 23 29 21 17 14 13 10 11 10 22 41 37 36 39 38 36 36 35 32 31 34 37 39 41 42 41 38 33 28 22 16 11 8 7 7
7 7 6 6 12 7 11 28 32 17 37 34 14 9 17 23 17 14 9 5 2 3 5 19 28 43 39 39 41 40 39 38 35 33 33 37 39 41 41 39 36 33 28 22 16 12 10 8 5
7 8 5 5 12 2 21 18 42 38 14 22 29 7 1 10 11 14 5 4 3 8 10 10 30 42 48 43 43 43 42 40 39 36 35 36 38 40 39 38 36 32 27 22 17 15 14 9 5
7 9 1 6 13 9 17 18 39 32 37 23 31 22 22 24 20 6 13 21 17 18 17 14 18 30 50 46 45 47 46 44 41 39 39 39 41 42 41 39 36 33 29 24 19 18 15 10 6
10 8 12 9 6 10 4 9 20 24 41 30 39 32 35 35 32 25 14 31 23 27 25 24 23 26 39 50 52 52 52 51 48 45 44 43 42 43 43 41 38 36 31 27 23 20 17 12 9
9 5 7 12 19 18 10 6 8 5 14 38 33 36 41 37 39 36 28 24 27 33 34 35 34 28 35 48 60 59 58 55 52 49 48 45 44 45 46 44 44 42 37 32 28 24 19 14 15
4 14 9 21 34 30 20 36 10 16 37 45 40 37 35 38 31 39 43 36 33 32 34 44 39 36 38 37 56 65 61 59 58 55 52 51 51 50 48 48 45 43 39 34 31 26 22 19 18
3 10 38 53 59 55 48 37 44 35 69 58 50 41 45 40 45 45 38 45 44 40 30 34 44 41 44 46 40 60 59 60 59 57 56 56 55 53 52 50 47 44 40 37 34 29 24 21 24
14 38 43 41 49 46 20 36 25 37 42 41 46 49 53 52 55 60 47 40 42 47 40 35 46 42 45 53 49 47 55 57 59 60 60 59 58 57 55 50 47 43 39 39 36 32 25 23 22
16 18 25 34 25 12 25 19 8 41 51 48 47 48 41 43 52 57 55 51 50 45 50 50 47 45 48 46 56 57 54 51 52 63 63 63 62 61 58 53 45 43 31 32 34 33 30 24 21
12 3 6 15 11 22 4 19 18 40 56 59 53 54 65 68 60 49 47 54 57 52 54 46 59 52 51 51 56 67 58 61 60 55 60 66 67 65 64 59 46 42 32 34 36 35 29 23 16
8 10 11 13 16 10 9 19 13 43 50 54 67 76 71 74 78 74 71 62 57 62 58 60 51 54 61 58 58 56 74 67 63 64 60 60 69 69 72 63 51 46 42 40 39 38 32 26 21
15 9 12 14 12 8 6 19 16 32 45 53 65 76 80 76 72 77 77 67 69 65 70 65 63 55 60 59 57 52 58 64 74 70 69 61 60 66 75 69 59 53 51 47 46 47 36 30 25
15 13 16 14 8 10 6 21 27 22 46 53 61 56 59 72 67 60 62 69 75 73 69 82 72 68 66 70 62 59 62 67 73 76 82 74 69 65 66 79 66 64 60 51 54 49 48 40 36
23 17 31 21 7 3 12 38 20 15 18 28 35 43 41 57 55 52 51 50 64 68 79 76 80 68 65 74 72 66 61 66 67 79 71 90 86 79 67 83 70 67 72 64 63 63 55 46 42
19 18 20 16 11 3 9 26 24 23 4 20 34 42 36 44 46 47 41 53 66 61 72 68 85 75 71 67 69 71 64 64 61 75 88 85 77 89 82 77 82 74 77 73 71 65 53 56 49
6 21 12 24 17 7 9 33 15 16 12 9 30 44 44 59 63 55 51 37 39 32 51 71 75 80 78 73 78 79 72 70 66 73 73 94 82 86 90 91 80 84 80 77 75 66 57 59 56
8 22 15 15 7 1 6 13 11 11 11 17 23 39 46 54 62 67 50 49 48 42 35 59 71 78 83 74 79 75 77 65 57 65 75 78 94 81 95 97 87 90 86 79 75 70 65 62 62
15 16 13 6 4 5 2 4 10 6 13 15 33 43 36 49 55 61 53 43 48 46 36 30 62 82 81 74 74 77 75 61 61 70 70 74 72 95 83 93 98 95 95 85 79 72 69 66 58
20 13 9 11 9 8 4 16 16 10 11 9 15 34 43 49 51 56 59 49 47 48 36 38 26 62 73 71 67 73 71 65 66 68 64 65 70 79 93 90 100 86 75 75 75 72 71 65 63
10 8 7 10 6 27 9 11 8 11 21 11 13 27 37 42 48 56 55 53 56 57 49 31 38 35 71 68 65 70 64 64 65 61 57 56 58 70 80 75 61 67 64 70 75 67 69 66 61
9 4 7 0 6 5 7 11 13 16 14 12 30 34 39 48 56 58 58 59 61 53 49 43 39 55 34 73 76 68 68 63 55 49 49 52 47 53 59 74 75 97 80 78 83 75 70 64 57
4 7 5 5 6 9 9 10 15 12 12 14 15 21 35 46 54 63 66 68 63 55 49 37 41 46 38 44 77 79 67 42 38 43 44 42 37 46 52 62 67 71 87 90 88 67 63 62 56
10 6 6 6 6 6 8 10 8 28 11 15 8 19 35 49 58 67 77 79 84 74 55 46 35 43 29 29 51 40 35 37 36 36 30 33 36 37 43 50 57 58 76 101 76 72 45 49 50
12 13 7 7 10 11 15 25 24 5 7 7 12 33 45 56 70 82 92 94 80 77 61 49 36 30 32 36 37 39 32 36 35 33 28 29 29 29 32 30 41 39 45 58 68 33 44 34 28
Wind_Direction_500mb
340 299 307 351 45 58 301 288 227 299 43 63 82 102 89 46 38 146 101 121 129 149 169 165 168 166 163 162 162 155 147 159 161 162 163 163 166 168 166 163 162 155 148 143 137 134 130 128 128
11 348 314 39 84 46 287 258 348 275 126 107 101 91 60 55 94 122 113 103 86 127 170 171 170 170 167 166 167 162 153 159 168 164 162 162 163 166 166 167 165 159 149 147 143 139 137 136 132
29 329 53 98 102 188 206 285 318 295 47 111 124 69 82 95 105 103 108 113 118 113 163 183 176 175 170 172 172 168 163 161 170 168 166 165 164 167 170 170 168 162 152 147 145 147 145 145 140
354 23 52 87 240 257 226 290 266 274 310 11 119 89 70 116 95 122 129 113 142 154 158 193 185 182 178 177 176 174 171 166 171 175 173 171 169 171 174 177 177 171 163 155 151 149 146 150 149
354 33 43 7 275 284 316 343 346 36 66 22 102 74 100 96 94 97 100 76 143 167 166 188 193 192 189 184 182 180 178 174 172 180 180 178 177 177 179 182 183 181 177 174 177 169 156 162 157
37 62 49 306 274 326 343 16 18 33 34 47 77 75 97 100 72 47 43 53 130 161 194 188 197 201 198 195 190 186 185 181 178 182 186 185 184 185 185 187 189 190 190 191 195 185 181 183 170
112 81 215 254 282 7 349 15 17 6 24 28 99 71 96 91 87 52 34 59 48 289 259 229 213 209 204 204 199 193 190 189 185 186 190 190 191 191 191 192 194 197 198 200 199 200 202 202 194
195 93 357 339 319 308 345 14 7 11 28 8 36 73 193 11 341 326 226 178 247 246 280 294 231 221 209 206 207 202 197 195 193 191 194 196 196 197 197 198 199 203 202 204 208 210 211 212 201
170 65 18 337 331 269 351 13 350 348 3 4 352 357 352 3 357 339 217 192 216 231 254 262 240 228 218 214 212 210 202 199 199 197 198 200 202 200 200 203 204 206 207 211 216 217 219 216 182
112 105 219 221 251 264 181 21 327 341 337 335 329 311 322 321 326 340 349 217 246 241 248 252 248 234 225 224 221 216 209 202 202 203 203 203 206 206 205 207 208 210 214 217 219 220 224 211 175
336 174 188 286 306 301 318 229 291 241 295 296 296 302 304 312 306 309 311 314 265 263 248 257 240 239 231 234 228 220 215 208 205 206 207 207 209 209 209 211 212 215 217 217 219 220 220 212 186
5 322 349 318 325 329 313 315 285 265 269 284 276 282 291 288 292 298 296 290 292 291 264 248 243 238 236 243 230 221 220 215 211 208 209 211 212 213 213 216 217 220 222 220 220 218 217 214 208
59 323 320 319 319 321 320 311 291 280 288 283 281 283 294 280 275 276 281 291 275 285 275 235 238 245 241 241 232 224 224 225 220 216 215 214 217 218 217 219 220 224 224 223 221 219 221 217 208
298 310 305 312 312 321 315 297 323 323 319 308 287 290 293 281 276 279 263 271 281 267 263 245 236 242 237 237 236 231 230 230 229 224 222 221 222 222 221 221 220 221 222 225 221 221 218 206 202
300 331 321 304 313 300 334 326 276 325 320 314 302 305 312 307 297 289 260 262 266 271 261 243 234 234 236 241 235 237 234 231 234 233 230 227 226 226 222 224 218 216 214 217 204 207 201 204 209
327 157 307 293 3 314 44 281 296 349 347 335 330 322 317 312 304 301 290 270 262 253 254 262 239 235 231 240 240 235 231 237 234 240 238 233 229 227 226 223 218 210 200 194 193 195 200 202 224
342 256 246 299 244 261 55 289 312 334 335 322 319 317 314 307 300 296 289 285 267 250 252 246 248 248 244 232 234 240 237 241 238 237 241 237 231 226 226 224 219 213 202 203 208 206 210 214 233
271 236 252 261 287 70 349 276 303 325 320 310 309 304 304 303 303 300 287 275 275 263 251 247 242 245 239 230 232 239 237 239 235 235 242 238 233 226 223 221 219 221 211 212 220 208 206 209 220
259 276 272 272 217 331 268 273 301 322 303 295 293 303 311 313 313 305 294 277 272 266 259 247 241 237 235 226 226 230 232 238 236 237 234 243 237 226 226 219 220 221 217 218 211 199 209 228 204
326 310 299 295 246 287 308 289 303 310 278 292 318 327 331 333 324 311 287 291 274 270 258 250 237 234 227 231 232 233 249 253 241 241 233 234 236 233 229 219 217 217 218 218 212 217 224 212 211
294 330 308 276 310 183 300 294 315 303 306 330 358 353 351 352 357 348 303 304 289 266 258 248 237 234 228 232 237 231 239 246 245 238 239 233 234 233 228 224 220 216 213 217 218 222 216 202 206
294 329 316 320 340 300 89 292 322 284 304 297 340 349 352 6 19 12 20 4 353 328 276 245 238 235 235 235 236 232 233 243 252 250 245 238 236 232 225 227 224 219 216 219 222 222 214 203 206
261 313 285 279 283 8 224 267 321 344 322 314 320 340 342 10 21 13 10 17 16 344 296 263 246 241 237 235 233 235 234 240 259 261 248 243 237 235 228 227 224 221 215 219 221 220 214 211 211
302 342 326 346 56 37 243 92 270 298 281 315 329 334 353 15 15 10 7 1 12 14 351 299 259 248 236 228 227 237 235 239 259 262 248 242 247 238 235 224 224 223 215 216 219 221 217 219 218
21 28 328 349 358 232 1 315 264 283 325 302 321 322 355 26 20 17 18 17 10 356 6 20 341 255 229 224 224 229 235 245 260 258 247 242 246 250 241 234 226 228 214 219 220 221 217 216 219
314 139 167 287 276 292 276 240 250 264 292 316 339 355 40 34 26 12 9 359 2 1 336 347 358 306 243 222 228 228 239 250 256 252 252 254 253 246 248 242 216 221 230 221 225 225 216 218 217
296 3 246 59 258 312 246 289 302 271 309 343 329 18 15 8 4 3 354 348 349 350 344 321 326 338 266 238 227 233 237 244 251 249 258 256 251 244 252 246 236 236 231 220 222 213 207 210 209
68 197 201 11 304 273 270 258 256 266 275 327 341 5 356 356 348 345 344 339 327 332 330 332 319 302 325 264 245 232 234 246 255 256 261 255 243 236 239 235 214 224 225 218 210 206 213 207 200
324 332 47 149 201 273 292 258 264 270 276 265 271 3 352 342 339 334 332 327 323 307 317 322 314 301 296 300 247 222 230 248 256 259 258 255 244 233 236 231 240 234 208 220 205 185 204 205 194
201 207 153 137 279 245 267 281 277 187 213 136 338 324 326 331 329 326 317 312 311 300 303 307 309 299 297 277 243 213 217 246 240 251 249 240 236 227 229 236 235 219 146 146 151 170 175 193 213
Wind_Speed_850mb
6 9 12 6 8 9 7 9 7 12 7 15 37 31 14 21 4 12 18 16 14 22 41 47 41 38 35 33 32 30 27 28 37 38 38 39 40 39 42 47 42 35 30 28 27 25 23 22 23
6 2 4 3 8 5 10 11 5 8 12 42 42 37 24 9 30 26 14 17 16 15 23 44 40 39 37 34 32 30 28 25 32 37 40 41 41 42 48 47 41 35 29 27 25 22 20 18 19
7 5 1 7 6 7 6 10 14 20 7 4 13 23 11 10 16 14 12 18 15 11 15 37 39 39 40 35 32 32 29 25 30 36 40 42 44 46 48 44 38 32 27 27 23 19 17 16 16
7 4 2 7 7 13 6 20 23 15 6 27 31 16 19 16 9 16 13 11 15 15 14 34 37 38 40 38 34 34 32 27 27 34 37 40 43 45 45 42 39 33 28 23 17 14 13 13 13
9 4 7 5 11 10 12 44 35 17 8 35 7 12 22 35 35 21 9 9 11 21 17 30 38 36 37 38 36 34 34 31 29 31 35 38 41 41 42 42 38 32 27 20 14 12 9 9 10
4 4 8 4 11 12 10 45 42 25 38 38 29 14 23 29 21 17 14 13 10 11 10 22 41 37 36 39 38 36 36 35 32 31 34 37 39 41 42 41 38 33 28 22 16 11 8 7 7
7 7 6 6 12 7 11 28 32 17 37 34 14 9 17 23 17 14 9 5 2 3 5 19 28 43 39 39 41 40 39 38 35 33 33 37 39 41 41 39 36 33 28 22 16 12 10 8 5
7 8 5 5 12 2 21 18 42 38 14 22 29 7 1 10 11 14 5 4 3 8 10 10 30 42 48 43 43 43 42 40 39 36 35 36 38 40 39 38 36 32 27 22 17 15 14 9 5
7 9 1 6 13 9 17 18 39 32 37 23 31 22 22 24 20 6 13 21 17 18 17 14 18 30 50 46 45 47 46 44 41 39 39 39 41 42 41 39 36 33 29 24 19 18 15 10 6
10 8 12 9 6 10 4 9 20 24 41 30 39 32 35 35 32 25 14 31 23 27 25 24 23 26 39 50 52 52 52 51 48 45 44 43 42 43 43 41 38 36 31 27 23 20 17 12 9
9 5 7 12 19 18 10 6 8 5 14 38 33 36 41 37 39 36 28 24 27 33 34 35 34 28 35 48 60 59 58 55 52 49 48 45 44 45 46 44 44 42 37 32 28 24 19 14 15
4 14 9 21 34 30 20 36 10 16 37 45 40 37 35 38 31 39 43 36 33 32 34 44 39 36 38 37 56 65 61 59 58 55 52 51 51 50 48 48 45 43 39 34 31 26 22 19 18
3 10 38 53 59 55 48 37 44 35 69 58 50 41 45 40 45 45 38 45 44 40 30 34 44 41 44 46 40 60 59 60 59 57 56 56 55 53 52 50 47 44 40 37 34 29 24 21 24
14 38 43 41 49 46 20 36 25 37 42 41 46 49 53 52 55 60 47 40 42 47 40 35 46 42 45 53 49 47 55 57 59 60 60 59 58 57 55 50 47 43 39 39 36 32 25 23 22
16 18 25 34 25 12 25 19 8 41 51 48 47 48 41 43 52 57 55 51 50 45 50 50 47 45 48 46 56 57 54 51 52 63 63 63 62 61 58 53 45 43 31 32 34 33 30 24 21
12 3 6 15 11 22 4 19 18 40 56 59 53 54 65 68 60 49 47 54 57 52 54 46 59 52 51 51 56 67 58 61 60 55 60 66 67 65 64 59 46 42 32 34 36 35 29 23 16
8 10 11 13 16 10 9 19 13 43 50 54 67 76 71 74 78 74 71 62 57 62 58 60 51 54 61 58 58 56 74 67 63 64 60 60 69 69 72 63 51 46 42 40 39 38 32 26 21
15 9 12 14 12 8 6 19 16 32 45 53 65 76 80 76 72 77 77 67 69 65 70 65 63 55 60 59 57 52 58 64 74 70 69 61 60 66 75 69 59 53 51 47 46 47 36 30 25
15 13 16 14 8 10 6 21 27 22 46 53 61 56 59 72 67 60 62 69 75 73 69 82 72 68 66 70 62 59 62 67 73 76 82 74 69 65 66 79 66 64 60 51 54 49 48 40 36
23 17 31 21 7 3 12 38 20 15 18 28 35 43 41 57 55 52 51 50 64 68 79 76 80 68 65 74 72 66 61 66 67 79 71 90 86 79 67 83 70 67 72 64 63 63 55 46 42
19 18 20 16 11 3 9 26 24 23 4 20 34 42 36 44 46 47 41 53 66 61 72 68 85 75 71 67 69 71 64 64 61 75 88 85 77 89 82 77 82 74 77 73 71 65 53 56 49
6 21 12 24 17 7 9 33 15 16 12 9 30 44 44 59 63 55 51 37 39 32 51 71 75 80 78 73 78 79 72 70 66 73 73 94 82 86 90 91 80 84 80 77 75 66 57 59 56
8 22 15 15 7 1 6 13 11 11 11 17 23 39 46 54 62 67 50 49 48 42 35 59 71 78 83 74 79 75 77 65 57 65 75 78 94 81 95 97 87 90 86 79 75 70 65 62 62
15 16 13 6 4 5 2 4 10 6 13 15 33 43 36 49 55 61 53 43 48 46 36 30 62 82 81 74 74 77 75 61 61 70 70 74 72 95 83 93 98 95 95 85 79 72 69 66 58
20 13 9 11 9 8 4 16 16 10 11 9 15 34 43 49 51 56 59 49 47 48 36 38 26 62 73 71 67 73 71 65 66 68 64 65 70 79 93 90 100 86 75 75 75 72 71 65 63
10 8 7 10 6 27 9 11 8 11 21 11 13 27 37 42 48 56 55 53 56 57 49 31 38 35 71 68 65 70 64 64 65 61 57 56 58 70 80 75 61 67 64 70 75 67 69 66 61
9 4 7 0 6 5 7 11 13 16 14 12 30 34 39 48 56 58 58 59 61 53 49 43 39 55 34 73 76 68 68 63 55 49 49 52 47 53 59 74 75 97 80 78 83 75 70 64 57
4 7 5 5 6 9 9 10 15 12 12 14 15 21 35 46 54 63 66 68 63 55 49 37 41 46 38 44 77 79 67 42 38 43 44 42 37 46 52 62 67 71 87 90 88 67 63 62 56
10 6 6 6 6 6 8 10 8 28 11 15 8 19 35 49 58 67 77 79 84 74 55 46 35 43 29 29 51 40 35 37 36 36 30 33 36 37 43 50 57 58 76 101 76 72 45 49 50
12 13 7 7 10 11 15 25 24 5 7 7 12 33 45 56 70 82 92 94 80 77 61 49 36 30 32 36 37 39 32 36 35 33 28 29 29 29 32 30 41 39 45 58 68 33 44 34 28
Wind_Direction_850mb
340 299 307 351 45 58 301 288 227 299 43 63 82 102 89 46 38 146 101 121 129 149 169 165 168 166 163 162 162 155 147 159 161 162 163 163 166 168 166 163 162 155 148 143 137 134 130 128 128
11 348 314 39 84 46 287 258 348 275 126 107 101 91 60 55 94 122 113 103 86 127 170 171 170 170 167 166 167 162 153 159 168 164 162 162 163 166 166 167 165 159 149 147 143 139 137 136 132
29 329 53 98 102 188 206 285 318 295 47 111 124 69 82 95 105 103 108 113 118 113 163 183 176 175 170 172 172 168 163 161 170 168 166 165 164 167 170 170 168 162 152 147 145 147 145 145 140
354 23 52 87 240 257 226 290 266 274 310 11 119 89 70 116 95 122 129 113 142 154 158 193 185 182 178 177 176 174 171 166 171 175 173 171 169 171 174 177 177 171 163 155 151 149 146 150 149
354 33 43 7 275 284 316 343 346 36 66 22 102 74 100 96 94 97 100 76 143 167 166 188 193 192 189 184 182 180 178 174 172 180 180 178 177 177 179 182 183 181 177 174 177 169 156 162 157
37 62 49 306 274 326 343 16 18 33 34 47 77 75 97 100 72 47 43 53 130 161 194 188 197 201 198 195 190 186 185 181 178 182 186 185 184 185 185 187 189 190 190 191 195 185 181 183 170
112 81 215 254 282 7 349 15 17 6 24 28 99 71 96 91 87 52 34 59 48 289 259 229 213 209 204 204 199 193 190 189 185 186 190 190 191 191 191 192 194 197 198 200 199 200 202 202 194
195 93 357 339 319 308 345 14 7 11 28 8 36 73 193 11 341 326 226 178 247 246 280 294 231 221 209 206 207 202 197 195 193 191 194 196 196 197 197 198 199 203 202 204 208 210 211 212 201
170 65 18 337 331 269 351 13 350 348 3 4 352 357 352 3 357 339 217 192 216 231 254 262 240 228 218 214 212 210 202 199 199 197 198 200 202 200 200 203 204 206 207 211 216 217 219 216 182
112 105 219 221 251 264 181 21 327 341 337 335 329 311 322 321 326 340 349 217 246 241 248 252 248 234 225 224 221 216 209 202 202 203 203 203 206 206 205 207 208 210 214 217 219 220 224 211 175
336 174 188 286 306 301 318 229 291 241 295 296 296 302 304 312 306 309 311 314 265 263 248 257 240 239 231 234 228 220 215 208 205 206 207 207 209 209 209 211 212 215 217 217 219 220 220 212 186
5 322 349 318 325 329 313 315 285 265 269 284 276 282 291 288 292 298 296 290 292 291 264 248 243 238 236 243 230 221 220 215 211 208 209 211 212 213 213 216 217 220 222 220 220 218 217 214 208
59 323 320 319 319 321 320 311 291 280 288 283 281 283 294 280 275 276 281 291 275 285 275 235 238 245 241 241 232 224 224 225 220 216 215 214 217 218 217 219 220 224 224 223 221 219 221 217 208
298 310 305 312 312 321 315 297 323 323 319 308 287 290 293 281 276 279 263 271 281 267 263 245 236 242 237 237 236 231 230 230 229 224 222 221 222 222 221 221 220 221 222 225 221 221 218 206 202
300 331 321 304 313 300 334 326 276 325 320 314 302 305 312 307 297 289 260 262 266 271 261 243 234 234 236 241 235 237 234 231 234 233 230 227 226 226 222 224 218 216 214 217 204 207 201 204 209
327 157 307 293 3 314 44 281 296 349 347 335 330 322 317 312 304 301 290 270 262 253 254 262 239 235 231 240 240 235 231 237 234 240 238 233 229 227 226 223 218 210 200 194 193 195 200 202 224
342 256 246 299 244 261 55 289 312 334 335 322 319 317 314 307 300 296 289 285 267 250 252 246 248 248 244 232 234 240 237 241 238 237 241 237 231 226 226 224 219 213 202 203 208 206 210 214 233
271 236 252 261 287 70 349 276 303 325 320 310 309 304 304 303 303 300 287 275 275 263 251 247 242 245 239 230 232 239 237 239 235 235 242 238 233 226 223 221 219 221 211 212 220 208 206 209 220
259 276 272 272 217 331 268 273 301 322 303 295 293 303 311 313 313 305 294 277 272 266 259 247 241 237 235 226 226 230 232 238 236 237 234 243 237 226 226 219 220 221 217 218 211 199 209 228 204
326 310 299 295 246 287 308 289 303 310 278 292 318 327 331 333 324 311 287 291 274 270 258 250 237 234 227 231 232 233 249 253 241 241 233 234 236 233 229 219 217 217 218 218 212 217 224 212 211
294 330 308 276 310 183 300 294 315 303 306 330 358 353 351 352 357 348 303 304 289 266 258 248 237 234 228 232 237 231 239 246 245 238 239 233 234 233 228 224 220 216 213 217 218 222 216 202 206
294 329 316 320 340 300 89 292 322 284 304 297 340 349 352 6 19 12 20 4 353 328 276 245 238 235 235 235 236 232 233 243 252 250 245 238 236 232 225 227 224 219 216 219 222 222 214 203 206
261 313 285 279 283 8 224 267 321 344 322 314 320 340 342 10 21 13 10 17 16 344 296 263 246 241 237 235 233 235 234 240 259 261 248 243 237 235 228 227 224 221 215 219 221 220 214 211 211
302 342 326 346 56 37 243 92 270 298 281 315 329 334 353 15 15 10 7 1 12 14 351 299 259 248 236 228 227 237 235 239 259 262 248 242 247 238 235 224 224 223 215 216 219 221 217 219 218
21 28 328 349 358 232 1 315 264 283 325 302 321 322 355 26 20 17 18 17 10 356 6 20 341 255 229 224 224 229 235 245 260 258 247 242 246 250 241 234 226 228 214 219 220 221 217 216 219
314 139 167 287 276 292 276 240 250 264 292 316 339 355 40 34 26 12 9 359 2 1 336 347 358 306 243 222 228 228 239 250 256 252 252 254 253 246 248 242 216 221 230 221 225 225 216 218 217
296 3 246 59 258 312 246 289 302 271 309 343 329 18 15 8 4 3 354 348 349 350 344 321 326 338 266 238 227 233 237 244 251 249 258 256 251 244 252 246 236 236 231 220 222 213 207 210 209
68 197 201 11 304 273 270 258 256 266 275 327 341 5 356 356 348 345 344 339 327 332 330 332 319 302 325 264 245 232 234 246 255 256 261 255 243 236 239 235 214 224 225 218 210 206 213 207 200
324 332 47 149 201 273 292 258 264 270 276 265 271 3 352 342 339 334 332 327 323 307 317 322 314 301 296 300 247 222 230 248 256 259 258 255 244 233 236 231 240 234 208 220 205 185 204 205 194
201 207 153 137 279 245 267 281 277 187 213 136 338 324 326 331 329 326 317 312 311 300 303 307 309 299 297 277 243 213 217 246 240 251 249 240 236 227 229 236 235 219 146 146 151 170 175 193 213